Wind_Speed
5 9 12 12 12 13 14 16 17 18 17 16 16 13 13 12 13 14 15 17 19 21 23 25 26 27 28 29 30 32 33 34 35 36 36 37 37 37 37 37 38 38 37 37
5 7 7 8 7 8 11 14 15 16 16 16 15 13 13 12 13 15 17 19 21 22 24 25 26 27 28 29 30 31 32 33 34 34 34 34 35 35 36 36 36 35 35 35
5 4 3 4 4 6 8 10 13 14 15 16 16 15 14 14 15 15 16 18 20 22 23 24 25 26 27 28 29 30 30 31 31 31 31 31 31 32 32 32 32 31 31 32
2 0 1 2 4 6 8 10 10 12 13 14 15 14 14 14 15 15 16 18 20 22 22 23 24 25 26 27 27 27 27 27 28 28 28 28 28 28 28 28 29 29 29 30
3 3 3 4 5 6 8 9 10 10 12 13 13 13 13 13 14 14 15 17 19 21 22 23 24 23 23 23 24 24 24 25 25 25 25 25 26 26 27 27 28 28 29 29
5 5 5 6 7 7 8 9 10 10 11 12 12 12 12 12 12 13 14 16 17 19 20 20 20 21 20 21 21 22 22 22 22 23 24 25 25 25 26 27 27 27 27 27
6 6 7 8 9 9 10 11 10 10 10 11 10 10 10 10 10 11 12 14 15 16 17 18 18 19 19 19 19 20 20 20 21 22 22 23 23 24 24 25 24 24 23 22
7 7 8 9 10 11 11 11 11 10 10 10 9 9 9 8 8 9 9 10 11 12 13 13 14 15 16 16 17 17 18 19 19 20 20 21 21 21 21 20 20 19 19 19
8 8 9 10 10 11 11 11 11 10 10 9 9 8 8 7 7 7 7 7 8 8 10 11 12 13 14 15 16 17 18 18 18 18 18 18 18 18 17 17 16 16 16 16
9 9 10 11 11 11 11 11 11 10 10 9 9 9 8 7 7 6 6 7 7 8 9 10 12 12 14 15 16 17 17 18 17 17 16 16 16 15 15 15 14 14 13 13
10 11 11 12 12 12 12 12 12 12 11 10 10 9 9 8 8 7 7 8 8 9 10 11 12 13 14 15 16 16 16 15 15 14 14 14 14 13 13 12 12 12 11 11
10 11 12 13 13 14 14 13 13 13 12 12 11 10 9 9 9 9 9 9 9 10 11 11 12 13 14 14 15 15 14 14 13 13 13 12 12 11 11 11 11 10 10 9
10 11 12 13 14 14 14 14 14 14 13 13 12 12 11 11 11 11 10 10 10 11 11 11 12 13 13 14 14 13 13 12 12 11 11 11 10 9 9 9 9 8 8 8
10 11 12 13 14 15 15 15 15 15 14 14 14 13 13 13 13 12 11 11 12 12 11 12 12 13 13 12 11 10 10 9 9 9 8 8 8 7 7 7 6 6 6 6
10 11 12 13 14 15 16 16 16 15 15 15 15 15 15 14 14 14 14 13 13 13 13 12 12 12 12 10 9 8 7 6 6 6 6 6 5 5 5 5 5 5 5 5
9 11 12 13 14 15 16 16 16 16 16 16 16 16 16 16 16 16 16 16 16 15 14 13 13 12 11 9 8 7 5 5 4 3 3 3 3 4 4 4 4 4 4 4
8 10 12 13 14 15 16 17 17 17 17 17 18 18 18 18 17 17 17 18 18 17 15 15 14 14 13 11 9 7 6 5 4 3 3 3 3 3 3 3 3 4 4 4
7 9 11 13 14 15 16 17 17 17 17 18 18 19 19 19 19 18 18 19 19 19 18 17 16 16 15 14 12 10 9 7 6 6 5 5 4 4 4 4 5 5 5 5
6 8 10 12 14 15 16 17 17 17 17 18 18 19 19 20 20 20 19 19 20 20 19 19 18 17 17 16 14 13 11 10 9 8 7 7 7 7 6 6 6 7 7 7
5 6 9 11 13 14 16 17 17 17 17 18 18 19 19 20 21 20 20 20 20 20 20 20 19 18 18 16 15 14 13 11 10 9 9 9 8 8 8 8 8 8 8 8
4 5 7 9 12 14 15 16 17 17 17 18 18 18 19 20 20 21 20 20 20 20 20 20 20 19 18 17 16 15 14 13 12 11 11 11 10 10 9 9 9 9 9 9
3 3 5 8 10 12 14 16 17 17 17 17 17 17 18 19 20 20 20 20 20 20 20 20 20 19 18 18 17 17 15 14 13 13 12 12 11 10 10 9 9 9 9 9
3 1 3 6 8 11 13 14 16 16 17 17 17 17 17 18 19 19 19 20 20 20 20 20 20 19 19 18 18 17 16 15 15 14 13 12 12 11 10 10 10 10 10 10
4 2 2 4 7 9 11 13 14 15 16 16 16 16 16 17 17 17 18 18 19 20 20 19 19 19 18 18 18 17 16 16 16 15 14 13 13 12 11 10 10 10 10 10
6 4 2 4 6 9 10 12 13 14 15 15 15 15 15 16 16 16 16 17 18 18 19 19 18 18 18 17 17 17 16 16 15 15 14 13 12 12 11 11 10 10 10 10
9 6 4 4 6 8 10 11 12 13 14 14 14 14 14 14 15 15 15 15 16 16 16 17 17 17 17 16 16 15 15 15 15 15 14 13 13 12 11 11 11 10 10 10
11 9 7 6 7 8 9 11 12 13 13 14 14 14 13 13 14 14 14 14 14 14 14 15 15 15 15 15 14 14 14 14 14 14 13 13 12 12 12 11 11 10 10 10
Wind_Direction
218 209 210 217 226 233 245 254 263 272 279 287 290 293 294 281 268 264 262 261 261 262 261 261 261 262 263 266 268 269 271 274 276 278 280 281 283 285 286 288 289 290 291 292
208 201 205 221 231 239 254 261 266 271 278 283 288 287 288 284 278 273 266 262 262 264 264 263 264 265 267 270 272 274 275 276 278 279 280 282 285 286 287 288 289 290 291 292
164 171 207 224 247 257 269 274 273 274 279 284 292 287 285 283 277 272 268 264 263 265 264 264 266 269 273 275 276 277 278 278 279 281 283 285 286 287 287 287 287 289 290 291
113 177 241 280 287 287 294 294 288 285 286 290 292 291 289 285 278 273 269 266 265 263 262 266 270 273 275 275 276 277 278 280 281 282 284 286 286 286 286 287 288 289 290 291
29 8 350 340 327 315 308 312 307 304 302 300 297 294 292 289 283 275 269 266 265 266 269 270 272 275 276 276 278 279 280 282 283 283 284 284 285 285 286 287 289 290 291 292
29 15 5 352 342 334 324 321 318 313 311 311 308 301 295 290 282 275 272 270 270 270 271 273 274 275 276 277 279 280 281 282 282 282 283 284 285 286 287 288 289 290 291 292
27 15 6 356 350 344 340 337 332 325 322 322 318 310 303 295 288 282 278 275 273 271 272 274 276 277 277 278 279 280 281 282 284 286 286 287 287 289 289 290 290 291 293 294
29 20 9 1 357 355 350 346 341 335 333 331 328 323 316 308 298 290 285 282 279 276 277 277 277 278 280 281 282 282 284 286 288 289 290 291 292 293 294 293 293 294 295 298
33 25 16 13 8 3 359 357 355 350 347 345 344 341 335 328 318 308 299 295 293 289 287 285 284 283 283 283 283 284 285 287 290 292 293 294 295 295 295 295 296 297 298 299
40 32 27 22 18 13 8 6 4 3 2 -0 358 356 354 349 342 331 320 315 307 300 296 293 291 288 286 287 288 288 288 288 290 291 292 293 293 294 296 296 297 299 301 302
44 36 32 29 26 23 18 16 15 14 12 11 9 6 2 357 351 342 332 322 315 309 305 301 298 295 294 293 293 291 289 288 290 291 291 291 292 295 297 297 298 300 301 303
45 38 34 32 29 26 25 24 23 23 22 20 17 13 9 2 355 347 337 331 326 321 316 311 306 303 301 299 296 293 290 288 289 290 289 291 294 297 298 299 300 302 305 307
47 40 37 34 31 30 30 29 28 28 27 25 22 18 14 9 3 357 351 345 338 331 325 321 318 314 310 307 302 296 291 288 288 288 288 290 295 297 297 298 301 305 310 312
48 43 39 35 33 32 32 31 31 31 31 29 27 24 21 17 13 8 2 357 350 343 338 334 330 326 323 318 312 305 299 294 291 289 288 290 293 297 300 302 307 314 319 322
50 45 41 37 35 34 33 33 33 33 32 31 29 27 25 23 20 17 13 8 3 359 355 351 345 340 335 332 329 321 313 310 305 298 294 295 298 303 308 315 320 326 330 334
53 46 42 39 37 35 35 34 34 34 33 32 30 28 27 25 23 22 21 17 13 9 7 5 2 1 358 354 349 344 339 334 333 325 315 314 317 320 324 332 337 340 342 345
57 49 44 41 38 36 35 35 35 34 34 33 32 30 29 28 28 27 26 23 21 21 20 18 18 18 19 20 21 23 23 15 14 15 13 8 6 5 7 11 13 12 13 12
64 52 45 41 38 36 35 34 34 35 34 34 33 32 32 31 31 30 29 28 28 29 30 29 30 32 34 36 38 40 40 40 41 43 42 39 38 40 44 44 43 41 40 38
73 56 47 41 37 36 35 34 34 35 35 35 35 35 34 33 33 32 31 31 31 32 34 34 36 39 41 43 43 43 44 45 48 50 52 50 52 56 59 60 56 54 51 48
83 60 48 40 36 34 34 33 33 34 34 34 35 35 34 33 34 33 33 33 33 34 35 35 37 39 40 41 43 44 45 48 50 52 53 54 56 59 62 62 61 59 56 54
98 65 48 39 35 32 31 31 31 32 32 33 34 34 33 33 34 34 34 34 34 35 35 36 38 38 39 40 43 45 47 49 51 53 56 58 60 62 64 64 62 60 57 55
124 69 45 35 30 28 27 28 29 29 29 31 32 32 33 33 33 34 34 35 35 36 37 38 38 39 40 42 45 46 47 49 52 54 55 57 58 59 61 60 59 57 55 53
172 95 35 26 24 23 22 23 25 25 26 27 29 30 31 31 32 32 33 34 35 36 37 39 39 39 40 42 45 47 46 48 50 52 53 54 55 56 58 58 57 55 53 51
199 212 358 10 13 14 16 17 19 21 22 22 24 26 27 28 29 30 31 33 34 35 36 38 39 39 39 41 44 46 46 47 50 52 53 53 54 54 55 55 55 54 52 50
214 229 285 341 356 2 6 9 11 13 15 17 18 20 22 23 24 26 28 31 33 34 36 37 38 38 39 41 43 45 45 46 47 49 50 49 49 50 50 51 51 51 49 47
224 237 264 306 334 347 354 358 1 4 7 9 12 13 15 17 19 20 23 25 28 30 32 34 35 36 36 38 41 43 43 44 45 46 46 45 46 46 47 47 46 45 43 41
232 242 260 286 311 327 338 345 349 353 356 359 2 4 6 8 11 14 17 19 21 23 26 28 29 30 31 32 35 37 37 38 39 40 39 40 40 41 41 41 40 40 39 37
Height
5744 5744 5746 5748 5749 5751 5752 5753 5753 5754 5754 5754 5753 5752 5753 5753 5754 5754 5755 5757 5758 5759 5759 5759 5760 5760 5760 5760 5760 5760 5760 5760 5759 5758 5757 5756 5754 5753 5751 5749 5746 5744 5742 5739
5743 5744 5745 5747 5747 5749 5750 5750 5750 5750 5750 5750 5749 5749 5749 5749 5750 5750 5751 5751 5752 5752 5752 5752 5752 5752 5752 5752 5752 5752 5751 5751 5750 5749 5748 5746 5745 5743 5741 5739 5737 5734 5732 5730
5744 5745 5745 5746 5746 5747 5747 5747 5747 5746 5747 5746 5745 5745 5745 5745 5745 5745 5746 5746 5746 5746 5745 5745 5745 5745 5744 5744 5743 5743 5742 5742 5741 5740 5739 5737 5736 5734 5732 5730 5728 5726 5723 5721
5745 5746 5745 5747 5744 5744 5744 5743 5743 5742 5742 5742 5741 5741 5740 5740 5740 5740 5740 5740 5739 5739 5738 5738 5738 5738 5737 5737 5736 5736 5735 5734 5733 5732 5730 5729 5727 5726 5724 5722 5720 5717 5715 5712
5745 5745 5744 5744 5743 5742 5741 5740 5740 5739 5738 5737 5737 5736 5735 5735 5734 5734 5733 5733 5733 5733 5732 5732 5731 5731 5731 5730 5729 5728 5727 5726 5725 5724 5723 5721 5719 5718 5716 5714 5712 5709 5707 5704
5745 5744 5743 5744 5742 5740 5741 5738 5737 5736 5734 5733 5732 5732 5731 5730 5729 5729 5728 5728 5727 5727 5726 5726 5726 5725 5724 5724 5723 5722 5721 5719 5718 5717 5715 5714 5712 5710 5708 5706 5704 5701 5699 5696
5744 5744 5743 5742 5740 5739 5738 5737 5734 5732 5731 5730 5729 5728 5727 5726 5725 5724 5723 5723 5722 5721 5721 5720 5720 5719 5719 5718 5717 5716 5714 5713 5712 5710 5708 5706 5705 5703 5701 5699 5696 5694 5691 5689
5744 5743 5744 5740 5738 5737 5736 5733 5732 5730 5728 5727 5726 5725 5723 5722 5721 5720 5719 5718 5718 5717 5716 5715 5715 5714 5713 5712 5711 5710 5709 5707 5705 5704 5702 5700 5698 5696 5694 5692 5690 5688 5686 5684
5745 5745 5742 5740 5738 5736 5734 5732 5730 5728 5727 5725 5724 5722 5721 5720 5718 5717 5716 5715 5714 5714 5713 5712 5711 5710 5709 5708 5706 5705 5703 5701 5700 5698 5696 5694 5692 5690 5689 5687 5685 5683 5681 5680
5744 5743 5741 5740 5738 5736 5734 5732 5729 5727 5726 5724 5722 5721 5719 5718 5717 5715 5714 5713 5712 5711 5710 5708 5707 5706 5704 5703 5701 5699 5698 5696 5694 5693 5691 5689 5688 5686 5684 5682 5681 5679 5678 5676
5744 5743 5742 5740 5738 5736 5734 5731 5729 5727 5725 5723 5721 5720 5718 5717 5715 5714 5712 5711 5709 5708 5706 5705 5703 5702 5700 5698 5696 5694 5692 5691 5689 5688 5686 5685 5684 5682 5681 5679 5678 5676 5675 5673
5746 5745 5743 5741 5739 5737 5734 5732 5730 5727 5725 5723 5721 5720 5718 5716 5714 5712 5710 5709 5707 5705 5703 5701 5699 5697 5695 5693 5691 5689 5688 5686 5685 5684 5682 5681 5680 5679 5677 5676 5675 5673 5672 5671
5747 5746 5744 5742 5740 5738 5736 5733 5731 5728 5726 5724 5722 5720 5718 5715 5713 5711 5709 5707 5705 5702 5700 5698 5696 5693 5691 5688 5686 5684 5683 5682 5681 5679 5678 5677 5677 5676 5675 5673 5672 5671 5670 5668
5748 5747 5745 5743 5741 5739 5737 5734 5732 5729 5727 5725 5722 5720 5718 5715 5712 5710 5707 5705 5702 5700 5697 5695 5692 5689 5686 5684 5682 5680 5678 5677 5677 5676 5675 5675 5674 5673 5672 5671 5670 5669 5668 5667
5749 5748 5747 5745 5743 5741 5738 5736 5733 5731 5728 5726 5723 5721 5718 5715 5712 5710 5707 5704 5701 5698 5695 5692 5689 5686 5683 5680 5678 5676 5675 5675 5674 5673 5673 5673 5672 5672 5671 5670 5669 5668 5667 5666
5750 5749 5748 5746 5745 5742 5740 5737 5735 5732 5730 5727 5725 5722 5719 5716 5713 5710 5707 5703 5700 5697 5693 5690 5687 5684 5681 5678 5676 5675 5673 5673 5672 5672 5672 5672 5671 5670 5670 5669 5668 5667 5666 5665
5751 5750 5749 5748 5746 5744 5742 5739 5737 5734 5732 5729 5726 5723 5720 5717 5714 5711 5708 5704 5701 5697 5694 5690 5687 5684 5681 5678 5675 5674 5673 5672 5672 5672 5671 5671 5670 5670 5669 5668 5667 5666 5665 5664
5752 5752 5751 5749 5748 5746 5743 5741 5738 5736 5733 5730 5727 5724 5721 5718 5715 5712 5709 5706 5702 5698 5695 5692 5688 5685 5682 5679 5677 5675 5674 5673 5673 5672 5672 5671 5670 5670 5669 5668 5667 5667 5666 5665
5753 5753 5752 5751 5749 5747 5745 5743 5740 5738 5735 5732 5729 5726 5723 5720 5717 5714 5710 5707 5704 5701 5697 5694 5691 5688 5685 5682 5680 5678 5677 5675 5675 5674 5673 5672 5671 5671 5670 5669 5668 5667 5667 5666
5753 5753 5753 5752 5750 5749 5747 5744 5742 5739 5737 5734 5731 5729 5726 5723 5719 5716 5713 5710 5707 5703 5700 5697 5694 5691 5688 5686 5684 5681 5680 5678 5677 5676 5675 5674 5673 5672 5672 5671 5670 5669 5668 5667
5753 5754 5754 5753 5752 5750 5748 5746 5744 5741 5739 5736 5733 5731 5728 5725 5722 5719 5715 5712 5710 5706 5703 5700 5697 5694 5692 5689 5687 5685 5683 5681 5680 5678 5677 5676 5675 5675 5674 5673 5672 5671 5670 5669
5753 5754 5754 5753 5752 5751 5749 5747 5745 5743 5740 5738 5735 5733 5730 5727 5724 5721 5718 5715 5712 5709 5706 5703 5700 5698 5695 5693 5690 5688 5686 5685 5683 5681 5680 5679 5678 5678 5677 5676 5675 5674 5673 5671
5753 5754 5754 5753 5753 5752 5750 5748 5746 5744 5742 5739 5737 5734 5732 5729 5727 5724 5721 5719 5715 5712 5709 5706 5704 5701 5699 5696 5694 5692 5690 5688 5686 5685 5684 5683 5681 5680 5679 5678 5677 5676 5675 5674
5752 5753 5753 5753 5753 5752 5751 5749 5747 5745 5743 5741 5738 5736 5734 5731 5729 5727 5724 5721 5718 5715 5712 5710 5707 5705 5702 5700 5697 5695 5694 5692 5690 5688 5687 5686 5685 5683 5682 5681 5680 5679 5678 5676
5750 5752 5752 5752 5752 5752 5750 5749 5748 5746 5744 5742 5740 5737 5735 5733 5731 5729 5726 5723 5721 5718 5716 5713 5710 5708 5706 5703 5701 5699 5697 5696 5694 5692 5691 5689 5688 5687 5685 5684 5683 5681 5680 5679
5748 5750 5751 5751 5751 5751 5750 5749 5747 5746 5744 5742 5740 5738 5736 5734 5732 5730 5728 5725 5723 5721 5718 5716 5713 5711 5709 5707 5705 5703 5701 5699 5697 5695 5694 5692 5691 5690 5688 5687 5685 5684 5682 5681
5746 5747 5749 5749 5749 5749 5749 5748 5747 5745 5744 5742 5740 5738 5736 5735 5733 5731 5729 5726 5724 5722 5720 5718 5716 5713 5711 5710 5708 5706 5704 5702 5700 5698 5697 5695 5694 5692 5691 5689 5688 5686 5685 5683